+ View the NASA Portal
+ Center for Near-Earth Object Studies
IMPORTANT:
The SSD Announcement email list is now available. Major changes are coming in the near future, including possible hostname and/or URL changes. To be notified of such changes, subscribe to this email list.
Please visit
this page
for more details.
Don't show this message again
JPL Small-Body Database Browser
Search:
[
help
]
266407 (2007 FZ10)
Classification:
Main-belt Asteroid
SPK-ID:
2266407
[
Ephemeris
|
Orbit Diagram
|
Orbital Elements
|
Mission Design
|
Physical Parameters
|
Discovery Circumstances
|
Close-Approach Data
]
[ show orbit diagram ]
Orbital Elements at Epoch 2458600.5 (2019-Apr-27.0) TDB
Reference:
JPL 12
(heliocentric ecliptic J2000)
Element
Value
Uncertainty (1-sigma)
Units
e
.04026931438374675
5.567e-08
a
2.771430725793835
3.4003e-08
au
q
2.659827110604068
1.5573e-07
au
i
3.372890963569199
7.062e-06
deg
node
339.0128882830039
8.8656e-05
deg
peri
245.2459018874254
0.00011738
deg
M
205.1347383823166
7.6223e-05
deg
t
p
2459325.446534141719
(2021-Apr-20.94653414)
0.00035608
TDB
period
1685.211709616991
4.61
3.1014e-05
8.491e-08
d
yr
n
.2136230112487288
3.9315e-09
deg/d
Q
2.883034340983602
3.5373e-08
au
Orbit Determination Parameters
# obs. used (total)
223
data-arc span
8397 days (22.99 yr)
first obs. used
1995-10-24
last obs. used
2018-10-20
planetary ephem.
DE431
SB-pert. ephem.
SB431-N16
condition code
0
norm. resid. RMS
.48879
source
ORB
producer
Otto Matic
solution date
2018-Oct-31 04:21:23
Additional Information
Earth MOID
= 1.65283 au
Jupiter MOID
= 2.09776 au
T_jup
= 3.333
[ show covariance matrix ]
[
Ephemeris
|
Orbit Diagram
|
Orbital Elements
|
Mission Design
|
Physical Parameters
|
Discovery Circumstances
|
Close-Approach Data
]
Physical Parameter Table
Parameter
Symbol
Value
Units
Sigma
Reference
Notes
absolute magnitude
H
16.3
n/a
MPO418413
266407 (2007 FZ10)
Discovered 2007-Mar-16 by Spacewatch at Kitt Peak
Reference:
20110218/Numbers.arc
Last Updated:
2011-02-22
[ show close-approach data ]
Alternate Designations
2007 FZ10
= 2002 ET53
[
Ephemeris
|
Orbit Diagram
|
Orbital Elements
|
Mission Design
|
Physical Parameters
|
Discovery Circumstances
|
Close-Approach Data
]
2019-Dec-14 08:00 UT
(server date/time)
Site Manager:
Ryan S. Park
Webmaster
:
Alan B. Chamberlin